Weather History for Decatur, AL

Change the Weather History Date:

Sunday, November 4, 2012

  Actual Average Record
Temperature  
Mean Temperature 50 °F -  
Max Temperature 62 °F 67 °F 81 °F (1990)
Min Temperature 37 °F 41 °F 20 °F (1991)
Degree Days  
Heating Degree Days 14    
Moisture  
Dew Point 46 °F    
Average Humidity 79    
Maximum Humidity 97    
Minimum Humidity 44    
Precipitation  
Precipitation 0.00 in - - ()
Sea Level Pressure  
Sea Level Pressure 30.08 in    
Wind  
Wind Speed 4 mph (North)    
Max Wind Speed 9 mph    
Max Gust Speed 18 mph    
Visibility 10 miles    
Events      
Averages and records for this station are not official NWS values.
T = Trace of Precipitation, MM = Missing Value Source: NWS Daily Summary

Daily Weather History Graph

Daily Weather History Graph

Search for Another Location

Airport:

Trip Planner

Search our weather history database for the weather conditions in past years. The results will help you decide how hot, cold, wet, or windy it might be!

Date:

Astronomy

Nov. 04, 2012 Rise Set
Actual Time 6:11 AM CST 4:50 PM CST
Civil Twilight 5:45 AM CST 5:16 PM CST
Nautical Twilight 5:15 AM CST 5:46 PM CST
Astronomical Twilight 4:45 AM CST 6:16 PM CST
Moon 9:30 PM CST (11/4) 10:52 AM CST (11/4)
Length of Visible Light 11h 31m
Length of Day
10h 39m
Waning Gibbous, 72% of the Moon is Illuminated
Nov 4
Waning Gibbous
Nov 6
Last Quarter
Nov 13
New
Nov 20
First Quarter
Nov 28
Full

Hourly Weather History & Observations

Time (CST) Temp. Windchill Dew Point Humidity Pressure Visibility Wind Dir Wind Speed Gust Speed Precip Events Conditions
12:53 AM 57.9 °F - 57.0 °F 97% 30.02 in 10.0 mi Calm Calm - N/A   Clear
1:30 AM 57.2 °F - 55.4 °F 94% 30.02 in 10.0 mi Calm Calm - N/A   Mostly Cloudy
1:53 AM 57.9 °F - 57.0 °F 97% 30.01 in 9.0 mi Calm Calm - N/A   Overcast
1:22 AM 59.0 °F - 57.2 °F 94% 30.03 in 9.0 mi Calm Calm - N/A   Overcast
1:53 AM 60.1 °F - 57.9 °F 93% 30.01 in 10.0 mi WNW 3.5 mph - N/A   Overcast
2:53 AM 59.0 °F - 57.0 °F 93% 30.00 in 9.0 mi North 3.5 mph - N/A   Mostly Cloudy
3:26 AM 59.0 °F - 57.2 °F 94% 30.03 in 8.0 mi NW 5.8 mph - N/A   Overcast
3:53 AM 57.0 °F - 53.1 °F 87% 30.03 in 10.0 mi NNW 6.9 mph - N/A   Overcast
4:53 AM 53.1 °F - 48.0 °F 83% 30.05 in 10.0 mi NNW 6.9 mph - N/A   Mostly Cloudy
5:21 AM 53.6 °F - 48.2 °F 82% 30.06 in 10.0 mi NNW 4.6 mph - N/A   Scattered Clouds
5:53 AM 51.1 °F - 44.1 °F 77% 30.07 in 10.0 mi North 8.1 mph - N/A   Clear
6:53 AM 50.0 °F - 45.0 °F 83% 30.09 in 10.0 mi North 4.6 mph - N/A   Clear
7:53 AM 50.0 °F - 44.1 °F 80% 30.12 in 10.0 mi NNW 6.9 mph - N/A   Clear
8:53 AM 48.9 °F - 43.0 °F 80% 30.13 in 10.0 mi NW 8.1 mph - N/A   Clear
9:53 AM 51.1 °F - 43.0 °F 74% 30.14 in 10.0 mi North 6.9 mph - N/A   Clear
10:53 AM 55.0 °F - 44.1 °F 67% 30.12 in 10.0 mi NW 6.9 mph - N/A   Clear
11:53 AM 57.9 °F - 44.1 °F 60% 30.10 in 10.0 mi NNE 8.1 mph - N/A   Clear
12:53 PM 61.0 °F - 43.0 °F 52% 30.09 in 10.0 mi Variable 5.8 mph - N/A   Clear
1:53 PM 62.1 °F - 39.9 °F 44% 30.08 in 10.0 mi North 8.1 mph 16.1 mph N/A   Clear
2:53 PM 61.0 °F - 39.9 °F 46% 30.08 in 10.0 mi North 8.1 mph 18.4 mph N/A   Clear
3:53 PM 57.9 °F - 41.0 °F 53% 30.09 in 10.0 mi NNE 9.2 mph - N/A   Clear
4:53 PM 53.1 °F - 42.1 °F 66% 30.11 in 10.0 mi North 5.8 mph - N/A   Clear
5:53 PM 50.0 °F - 39.9 °F 68% 30.12 in 10.0 mi NE 4.6 mph - N/A   Clear
6:53 PM 46.0 °F 44.8 °F 39.9 °F 79% 30.13 in 10.0 mi NE 3.5 mph - N/A   Clear
7:53 PM 46.0 °F 44.8 °F 39.9 °F 79% 30.14 in 10.0 mi NE 3.5 mph - N/A   Clear
8:53 PM 42.1 °F - 39.0 °F 89% 30.14 in 8.0 mi Calm Calm - N/A   Clear
9:53 PM 39.9 °F - 37.9 °F 93% 30.14 in 7.0 mi Calm Calm - N/A   Clear
10:53 PM 37.9 °F 35.5 °F 37.0 °F 97% 30.14 in 5.0 mi North 3.5 mph - N/A   Clear